Theta_e
277 277 277 277 277 277 278 278 278 278 278 278 278 278 278 278 278 278 278 278 278 278 278 277 277 277 277 276 275 274 274 272 272 271 270 270 270 270 270 270 270 270 271 271 272 273 274 276 277 278 279 279 280 281 281 282 283 284 285 286 287 288 290
276 276 276 276 276 276 277 277 277 278 278 278 278 278 278 278 278 278 278 278 278 278 278 278 277 277 277 276 276 275 274 273 272 271 270 270 270 269 270 270 270 270 270 270 271 271 272 273 275 276 277 278 278 279 280 281 281 282 283 284 285 287 288
276 276 275 275 276 276 276 277 277 277 277 278 278 278 278 278 278 278 278 278 278 278 278 278 277 277 277 276 276 276 275 274 273 272 271 270 270 270 269 270 270 270 270 270 270 271 271 272 273 274 275 276 277 278 278 279 280 281 281 283 284 285 286
275 275 275 275 275 275 276 276 276 277 277 277 277 277 278 278 278 278 278 278 278 278 278 278 277 277 277 276 276 276 276 275 274 273 272 271 271 270 270 270 270 270 270 270 270 270 270 271 272 273 274 275 276 277 277 278 279 279 280 281 282 283 284
275 275 275 275 275 275 275 276 276 276 276 276 277 277 277 277 277 277 277 277 277 277 277 277 277 277 276 276 276 277 276 276 275 274 273 272 272 271 270 270 270 270 270 270 270 270 270 270 271 272 273 274 275 275 276 277 277 278 279 280 280 281 283
274 275 275 275 275 275 275 275 275 276 276 276 276 276 276 277 277 277 277 277 277 277 277 277 277 277 276 276 276 277 277 276 275 274 274 273 273 272 271 271 270 270 270 270 270 270 270 270 270 271 271 273 274 274 275 276 277 277 278 279 279 280 281
274 274 275 275 275 275 275 275 275 275 275 275 275 275 276 276 276 276 277 277 277 277 277 276 277 277 276 276 276 277 277 276 275 275 274 274 274 273 272 272 271 271 270 270 270 270 270 270 270 270 271 272 272 273 274 275 276 276 278 278 279 279 280
274 274 274 274 274 274 275 275 275 275 275 275 275 275 275 275 275 275 276 277 277 277 276 276 276 276 276 276 276 277 276 276 275 275 275 275 275 274 274 273 273 272 271 271 270 270 270 270 270 270 270 271 271 272 273 274 274 275 277 277 278 278 279
273 273 273 273 274 274 274 275 275 275 275 274 274 274 274 274 274 275 275 276 277 277 276 276 276 275 275 276 276 276 276 276 276 275 275 275 275 275 275 274 274 273 273 272 271 271 271 270 270 270 270 271 271 272 273 274 274 275 276 276 277 278 279
273 272 272 273 273 273 274 274 275 274 274 274 274 274 274 274 274 274 275 276 276 276 276 276 276 275 275 276 276 276 276 276 275 275 276 276 276 276 276 275 275 274 274 273 273 273 272 271 271 272 271 271 271 272 272 273 273 274 275 275 275 277 279
272 272 272 272 272 273 273 274 274 274 274 274 273 273 273 274 274 274 274 275 276 276 276 276 276 276 276 276 276 276 276 276 276 275 275 276 276 276 276 275 275 275 274 274 274 274 273 273 273 274 273 273 273 272 272 272 272 273 273 274 275 276 277
272 272 272 272 272 272 273 273 273 273 273 273 273 272 272 272 273 274 274 275 275 276 276 276 276 276 276 276 277 277 277 277 277 276 276 276 276 276 275 275 275 275 275 275 275 274 274 274 275 275 275 274 274 274 273 273 272 272 272 273 274 275 275
272 272 272 272 272 272 272 273 273 273 273 273 273 272 271 270 271 272 274 275 275 276 276 276 276 276 277 277 277 277 277 277 277 276 276 276 276 276 275 275 275 275 275 275 275 275 275 275 275 275 276 276 275 275 274 274 273 273 273 274 274 274 274
272 272 272 272 272 272 272 272 273 273 273 273 273 272 271 270 270 270 272 273 275 276 276 276 276 277 277 277 277 277 277 277 277 276 276 276 276 276 276 275 275 275 275 275 275 275 276 276 276 276 277 276 275 275 275 275 274 274 274 274 275 275 274
272 272 272 272 272 272 272 272 272 272 272 273 273 272 271 271 270 270 270 271 274 276 276 276 277 277 277 278 277 277 277 277 277 277 276 276 277 277 276 276 276 276 275 275 275 276 277 277 277 277 277 276 276 275 275 275 275 274 274 275 275 274 274
272 272 272 272 272 272 272 272 272 272 272 273 273 272 271 271 271 270 270 271 274 276 276 277 277 278 278 278 278 278 278 278 278 277 277 278 278 278 278 277 277 277 276 276 276 276 277 278 278 278 277 277 277 276 276 276 275 275 274 274 274 274 275
272 272 272 272 271 272 272 272 272 272 272 273 272 272 271 271 271 271 271 272 274 276 276 277 277 278 278 278 278 278 278 278 279 278 278 278 278 278 278 278 278 277 277 277 276 276 277 278 278 278 278 278 278 277 277 276 276 275 275 274 274 274 275
272 272 272 272 272 271 272 272 272 272 272 273 272 271 271 272 271 271 271 272 274 276 276 276 277 278 278 278 278 278 277 278 278 278 278 278 278 278 279 279 279 278 278 277 277 277 277 277 278 278 278 278 278 278 277 277 276 276 276 275 274 274 275
272 272 272 272 272 272 271 272 272 272 272 272 272 272 272 272 272 271 272 273 274 276 276 276 277 277 277 278 278 278 277 278 278 279 279 279 279 279 279 279 280 280 279 279 278 278 278 278 278 278 278 278 278 278 277 277 277 277 276 276 275 275 274
272 272 272 272 272 272 272 272 272 273 272 272 272 272 271 271 272 272 272 273 274 275 276 276 276 277 277 277 278 278 278 278 278 278 279 279 279 279 279 280 280 280 280 280 280 279 279 279 279 279 279 278 278 278 278 278 277 277 277 276 276 276 275
272 272 272 272 272 272 272 272 273 273 272 272 272 272 272 271 271 272 273 274 275 275 275 275 276 276 277 277 277 277 278 278 278 278 278 278 279 279 279 279 279 280 280 280 280 280 280 280 280 279 279 279 279 279 279 278 278 278 278 277 276 277 276
272 272 272 272 272 272 272 272 272 273 272 272 272 273 272 272 272 273 274 274 275 275 275 275 275 276 276 277 277 277 278 278 278 278 278 278 279 279 279 279 280 280 280 280 280 280 280 280 280 280 280 280 280 280 280 279 279 278 278 277 277 277 276
272 272 272 272 272 272 272 272 272 272 273 272 272 273 273 272 273 274 275 275 275 275 275 275 275 276 276 276 277 277 277 277 278 278 278 279 279 279 279 279 280 280 280 280 280 280 280 280 281 281 281 281 281 280 280 279 279 279 278 278 277 277 276
272 272 272 272 272 272 272 272 272 272 272 272 272 273 273 273 274 275 275 274 274 274 274 275 275 276 276 276 277 277 277 277 277 277 278 278 279 279 279 279 279 279 280 280 280 280 280 280 280 281 281 281 281 280 280 279 280 279 279 278 278 277 277
272 272 271 271 272 272 272 271 271 272 272 272 272 273 273 273 274 274 274 274 273 273 274 274 275 275 275 276 276 276 277 277 277 277 277 277 277 278 278 278 278 278 279 279 280 280 280 280 280 281 281 281 280 280 280 280 280 280 279 279 278 277 277
272 272 271 271 272 272 271 271 271 271 271 272 272 273 273 273 273 273 273 273 273 273 274 274 274 274 275 275 275 275 276 276 276 276 276 276 277 277 277 277 277 277 278 278 279 279 280 280 281 281 280 280 280 280 280 280 280 280 279 278 278 277 277
272 271 271 271 271 271 271 270 270 271 271 272 272 272 273 273 273 273 273 273 273 273 273 274 274 274 274 274 274 274 274 275 275 275 276 276 276 276 276 276 277 277 277 277 278 278 279 280 280 280 280 280 280 280 280 280 280 279 279 278 278 277 277
272 271 271 271 271 270 270 270 270 271 271 272 272 272 272 272 272 272 272 273 273 273 273 273 274 274 274 274 274 274 274 274 274 275 275 275 275 275 276 276 276 276 276 276 277 277 278 278 279 279 279 279 280 280 280 280 280 279 278 277 277 277 277
271 271 270 270 270 270 270 270 271 271 271 272 272 272 272 272 272 272 272 272 272 272 273 273 273 274 274 274 274 274 274 274 274 274 274 274 275 275 275 275 276 275 275 275 276 276 277 277 277 278 278 278 279 280 280 280 280 279 278 277 277 277 277
271 270 270 270 270 270 270 270 270 271 271 271 271 271 271 271 271 272 272 272 272 272 272 273 273 274 274 274 274 274 274 274 274 274 274 274 274 274 274 274 274 274 275 275 275 276 276 276 276 277 277 278 278 279 279 280 280 280 279 278 277 277 276
270 270 270 270 270 270 270 270 270 270 270 270 271 271 271 272 272 272 272 272 272 272 272 272 273 273 274 274 274 274 274 274 274 274 274 274 273 273 273 273 273 274 274 274 275 275 275 276 276 277 278 278 278 279 279 279 280 279 279 278 278 277 277
270 269 269 269 270 270 270 269 270 270 270 270 270 271 271 271 271 271 271 271 271 271 272 272 273 273 273 273 273 273 273 273 273 273 273 273 273 273 273 273 273 274 274 274 275 275 275 276 276 277 278 278 279 279 279 279 279 279 279 279 279 278 278
269 269 269 269 270 270 270 269 269 269 270 270 270 270 270 270 270 270 270 270 271 271 271 271 272 272 272 272 272 273 273 273 273 273 273 273 273 273 273 274 274 274 274 275 275 275 275 276 276 277 277 278 278 279 279 279 279 279 279 279 279 279 279
268 268 269 269 270 270 270 269 269 269 269 269 269 269 269 269 269 270 270 270 270 270 270 271 271 271 271 271 271 272 272 272 272 273 273 273 273 274 274 274 274 274 275 275 275 275 275 276 276 276 276 277 278 278 279 279 279 279 279 279 279 279 279
267 268 268 269 270 270 269 269 269 269 269 269 269 269 270 269 270 270 270 270 270 270 270 271 271 271 270 270 270 271 271 271 271 272 272 273 273 274 274 274 274 274 274 274 274 274 275 275 275 276 276 276 277 277 278 278 279 279 279 279 280 279 279
268 268 268 269 269 269 269 269 269 269 268 269 270 270 269 269 270 270 270 271 271 271 271 270 270 270 270 270 270 270 270 271 271 271 272 272 273 273 273 273 274 274 274 274 274 274 274 274 274 275 275 276 276 276 277 277 278 278 279 279 279 279 279
Wind_Speed
33 33 32 32 32 32 32 32 31 31 31 30 30 29 29 29 29 29 28 27 26 25 24 24 23 22 20 19 19 19 19 20 20 19 19 19 20 20 22 22 23 28 29 25 26 29 31 31 28 26 26 25 25 25 22 21 21 20 19 17 17 18 19
34 33 33 33 33 33 33 33 33 33 32 32 32 31 30 30 30 31 30 28 28 27 26 25 23 22 21 20 19 19 19 20 20 21 21 21 21 22 22 23 23 26 27 28 28 29 33 35 34 34 32 29 28 27 25 24 24 23 22 21 20 19 19
34 34 34 34 33 33 33 33 33 33 33 34 34 33 32 32 32 32 31 30 29 28 27 26 24 23 21 21 20 19 18 19 20 20 22 22 23 23 24 24 24 25 27 29 27 25 30 34 35 37 37 34 32 31 30 29 27 26 25 24 24 23 21
34 34 34 34 34 34 34 34 33 33 33 34 34 33 33 32 32 32 32 30 29 28 28 27 25 23 21 21 21 19 18 18 19 20 20 22 23 24 25 25 25 25 26 26 26 24 27 31 33 35 37 36 35 35 34 33 30 29 29 28 27 27 26
35 35 35 35 35 34 34 34 33 33 33 33 33 33 33 32 32 32 31 30 28 28 28 27 25 23 22 22 22 20 18 17 17 17 18 20 21 23 24 26 27 27 26 25 26 25 25 27 30 32 34 35 35 35 35 34 33 31 30 29 29 30 30
35 35 35 34 34 34 33 33 33 33 33 33 33 33 32 32 32 31 31 29 27 26 27 27 26 24 23 22 22 20 18 17 15 13 14 16 17 18 21 24 25 27 28 28 28 27 26 27 29 31 33 35 35 35 36 35 34 33 31 30 30 31 31
35 35 34 34 33 33 33 33 33 33 32 33 33 32 31 31 31 31 30 28 26 25 25 26 26 24 23 23 23 21 18 16 13 12 12 13 14 16 18 20 22 24 27 29 30 29 28 28 30 30 31 33 34 34 35 36 35 35 34 31 29 29 29
34 34 34 33 33 33 32 32 32 32 31 32 32 31 30 29 30 30 29 27 26 24 24 24 25 24 23 22 21 19 18 16 14 12 12 13 14 16 17 18 20 21 23 26 28 30 29 29 30 29 28 29 30 32 35 35 34 36 35 33 31 29 27
31 32 33 33 33 32 32 32 31 30 30 31 30 29 28 28 29 28 27 26 26 25 24 24 25 23 21 20 19 18 17 17 15 15 15 15 15 17 18 19 20 21 22 24 26 27 27 28 29 29 27 27 29 31 33 32 32 34 34 32 32 30 27
30 31 31 32 32 32 31 31 30 29 29 29 28 26 26 27 27 27 26 26 26 26 25 25 24 21 20 20 20 18 17 17 16 17 17 17 16 17 17 18 19 20 21 23 24 24 25 26 27 26 25 25 25 26 27 27 28 31 31 30 32 31 28
29 30 31 31 32 31 31 30 29 28 28 27 26 25 25 26 26 26 26 27 27 26 25 24 22 20 19 20 19 17 16 16 17 17 18 18 18 18 19 18 19 19 20 21 23 23 23 24 24 21 20 21 19 18 21 23 25 28 28 28 30 31 28
28 29 29 30 30 30 30 29 27 26 26 25 24 23 24 26 25 25 26 26 26 25 24 23 21 20 19 18 17 16 17 17 18 17 18 18 19 21 22 22 21 20 19 20 20 20 21 22 20 18 16 15 12 11 12 15 19 22 24 25 27 28 26
27 27 27 28 29 29 29 28 26 25 24 24 23 22 22 24 25 25 25 25 24 24 23 22 21 20 18 16 16 16 17 18 19 18 18 18 19 22 24 26 26 23 21 20 20 21 21 20 18 15 12 9 8 9 9 10 11 13 16 20 22 23 23
26 26 26 26 27 27 28 27 25 24 23 23 23 22 22 24 26 26 25 24 22 21 22 22 20 18 16 15 15 16 18 19 20 19 19 18 20 21 22 25 27 28 27 27 25 24 22 19 17 15 11 10 11 12 12 11 11 10 11 14 15 15 16
25 25 25 25 25 26 27 26 23 22 22 22 22 22 22 25 27 26 26 26 24 22 21 20 18 15 14 13 15 16 16 17 18 19 20 18 18 19 20 21 23 25 28 31 31 28 23 19 17 15 13 13 14 15 13 12 12 11 12 14 12 10 11
25 25 24 23 23 25 27 25 22 21 21 21 22 21 22 25 26 25 26 27 26 23 20 18 15 13 12 12 13 13 13 15 16 16 16 16 16 16 18 20 20 19 21 26 30 30 25 21 18 16 14 14 14 15 14 14 16 16 15 16 15 13 13
24 23 23 22 23 24 25 24 20 20 20 21 21 21 23 25 25 23 24 26 26 23 20 17 14 11 11 12 12 12 14 15 16 16 15 16 17 17 19 20 20 19 19 21 23 26 25 22 19 17 15 14 14 13 12 13 18 19 18 19 19 17 14
24 23 23 22 21 23 24 22 19 18 20 21 21 22 24 26 26 25 25 26 27 24 19 17 15 12 13 15 14 15 16 14 14 16 17 17 17 18 19 19 18 18 19 20 21 22 24 23 21 19 17 16 15 14 14 16 18 17 17 20 23 22 17
24 23 22 21 21 21 23 22 18 17 20 21 21 22 24 26 26 25 25 26 26 24 19 18 19 17 18 19 18 17 18 15 12 15 18 18 18 19 19 17 17 17 17 18 19 20 21 22 21 22 22 22 21 20 20 22 21 19 18 20 22 23 20
24 23 22 21 21 21 21 20 17 17 20 21 21 23 24 24 23 22 24 24 23 22 20 21 22 23 24 24 22 21 21 19 17 17 19 19 20 21 19 17 17 18 18 18 19 19 19 20 19 20 23 24 25 25 25 26 25 24 22 22 22 21 22
23 23 22 21 20 20 20 19 16 16 19 20 22 24 25 25 22 23 24 22 20 22 23 23 24 26 27 27 25 24 22 21 20 20 20 22 22 22 20 18 19 19 18 19 20 19 19 19 19 20 21 22 23 24 25 27 28 27 25 25 25 24 24
22 23 22 20 19 19 18 17 16 16 18 20 21 24 26 26 23 23 22 20 21 24 25 24 24 25 26 26 25 24 23 21 21 19 19 20 22 22 22 21 19 18 18 20 21 21 20 19 20 21 22 20 20 20 21 24 28 28 28 28 28 28 28
23 23 21 19 17 17 16 15 16 16 18 19 20 22 25 25 23 21 19 20 22 24 24 24 25 25 26 26 26 26 25 25 24 21 19 18 18 17 19 20 18 15 15 16 18 20 21 21 21 21 21 20 20 20 19 22 26 28 28 29 30 32 32
22 22 21 18 16 15 14 15 16 16 17 18 19 21 23 24 23 20 19 19 21 22 23 24 25 25 26 27 28 28 28 27 26 23 20 19 19 18 20 22 22 21 19 17 16 17 18 20 21 21 20 20 20 19 17 18 21 24 24 26 28 31 33
22 21 20 17 14 13 13 14 15 16 17 16 17 19 20 21 21 20 18 17 18 21 23 23 23 23 23 24 25 26 26 26 24 22 21 22 23 23 24 25 25 24 23 22 21 19 18 18 19 20 19 19 18 16 14 15 17 20 22 24 26 29 32
20 20 18 15 13 12 13 15 16 16 16 16 18 20 22 22 23 22 21 20 20 20 19 19 19 19 20 21 22 23 24 25 23 22 23 25 26 26 27 27 26 24 22 23 23 22 21 18 17 16 15 16 16 16 15 15 17 19 21 23 26 28 31
19 18 16 13 11 12 14 15 15 16 16 16 18 20 22 24 24 25 24 25 24 23 21 21 21 21 21 20 20 19 20 21 21 23 25 27 28 29 28 27 25 23 20 19 19 21 22 21 19 17 16 16 16 17 15 14 16 19 19 21 23 27 30
17 16 13 11 12 14 15 15 15 15 16 17 17 18 19 20 21 22 22 21 21 21 21 21 20 19 18 17 16 16 17 18 20 23 25 26 27 26 25 24 22 21 19 18 17 18 20 22 22 23 22 19 17 16 14 12 14 17 17 17 19 23 26
15 13 11 12 14 15 14 13 13 13 14 15 15 15 14 14 15 15 14 14 15 16 17 17 16 16 17 17 16 17 18 19 20 21 21 21 21 20 20 20 20 20 19 19 18 17 18 20 22 24 23 21 18 16 14 13 15 16 16 14 16 19 21
13 11 12 15 16 14 11 10 10 11 11 11 11 10 10 10 11 11 10 10 11 12 14 15 15 14 15 16 17 18 19 19 19 19 19 19 18 18 18 18 18 19 18 18 17 16 16 18 20 22 22 21 20 18 16 15 15 16 16 16 16 18 17
11 11 14 17 15 9 6 8 9 8 8 8 8 8 9 9 10 12 13 12 12 13 15 15 14 15 15 16 16 18 19 19 19 20 20 19 17 16 17 16 16 15 15 15 16 16 16 16 18 20 21 22 22 20 18 17 16 16 17 18 18 19 18
11 13 14 15 12 6 4 7 9 9 8 8 7 7 8 10 12 13 15 15 15 16 16 16 16 17 19 19 20 21 21 22 22 22 20 17 15 16 16 15 14 14 14 14 15 16 17 17 17 18 20 22 23 22 21 19 19 18 18 19 19 20 19
8 9 10 11 13 11 8 8 10 10 9 7 6 7 10 12 13 13 14 16 17 18 18 19 20 21 22 23 24 23 23 23 22 19 16 14 14 15 15 14 13 13 13 13 14 15 16 17 17 16 17 19 21 23 23 22 21 22 21 22 22 21 20
11 13 14 15 16 16 13 10 10 9 6 6 7 10 13 13 12 13 14 16 18 19 20 21 22 23 24 23 22 20 18 17 15 14 13 12 13 14 14 13 13 12 12 12 13 13 14 15 16 16 15 16 18 21 23 24 24 24 24 24 23 22 20
21 22 21 18 18 19 19 17 15 11 9 10 13 14 13 11 11 13 13 13 13 15 16 17 18 18 18 18 17 15 14 13 12 12 12 12 12 13 13 12 11 11 10 10 11 12 13 14 15 15 15 15 16 17 20 22 24 25 25 25 25 24 22
24 24 23 22 21 21 21 20 18 15 15 16 15 11 9 8 9 10 11 11 11 11 11 12 12 12 13 13 13 13 12 11 11 11 11 12 12 13 12 11 10 9 9 9 9 10 10 11 13 14 15 15 15 16 17 19 21 23 24 25 26 27 26
Wind_Direction
256 257 257 257 257 258 259 260 261 262 261 261 261 261 263 266 268 270 273 274 275 275 274 271 269 269 270 269 267 266 264 260 256 253 248 245 246 246 248 248 249 256 262 261 258 257 253 246 243 243 241 237 233 229 228 228 225 222 218 215 212 210 208
256 256 257 257 257 257 258 259 260 261 261 262 262 262 263 265 267 269 271 272 273 274 274 272 268 266 267 267 267 268 267 264 258 253 250 246 245 246 246 246 249 255 262 264 262 261 260 257 254 251 249 248 246 241 239 237 232 230 228 224 221 217 214
256 255 255 256 256 257 257 258 259 260 261 262 262 262 263 264 266 268 269 270 270 271 272 270 266 264 265 266 267 269 270 269 264 257 253 250 247 247 247 246 247 252 258 264 265 264 263 262 260 258 256 255 254 253 252 248 241 239 237 232 229 226 222
256 255 255 255 255 256 257 257 258 259 260 261 262 262 263 263 264 266 267 268 268 268 268 267 264 262 262 263 265 268 271 271 268 263 259 257 253 249 248 247 247 249 254 260 264 265 265 265 264 262 261 260 258 258 258 257 253 248 243 238 236 234 229
255 254 254 255 256 256 257 258 259 259 259 260 261 262 262 263 263 264 265 266 265 266 266 265 262 260 261 262 263 266 270 269 268 267 265 264 262 256 253 252 250 250 252 255 259 263 264 266 265 263 262 261 260 260 261 260 259 255 251 246 242 238 235
255 254 254 255 256 257 257 258 259 259 259 260 260 261 261 262 263 263 264 264 263 263 262 260 258 257 257 258 260 263 266 264 261 263 266 269 270 265 260 257 255 254 254 254 257 260 262 264 264 263 262 260 259 261 262 262 263 261 257 253 247 242 239
255 254 255 256 256 257 258 259 260 260 260 260 260 260 260 261 263 263 262 262 261 259 258 258 257 256 255 256 259 260 259 255 251 254 264 272 276 274 268 264 261 258 256 257 258 259 259 261 263 263 261 260 260 261 262 262 264 264 261 259 256 251 246
258 256 255 256 256 257 259 259 260 261 261 262 262 262 262 262 262 262 261 260 258 255 253 255 257 257 256 257 260 259 253 245 242 248 259 269 277 278 274 271 269 264 261 259 259 259 261 261 262 261 260 260 258 256 256 257 261 264 265 266 266 262 254
259 257 256 256 256 257 258 259 260 262 262 263 263 264 264 263 261 260 258 256 254 251 250 253 256 257 257 260 262 259 247 239 241 250 257 264 270 275 276 275 272 269 266 263 262 262 261 260 261 262 259 257 254 253 255 257 259 263 265 268 269 266 258
260 258 257 257 258 258 258 258 259 261 262 264 265 265 262 259 258 257 254 251 249 249 249 252 255 255 257 259 259 252 239 235 244 253 258 260 262 266 272 274 271 269 267 265 266 267 264 261 263 265 263 260 258 256 255 255 255 258 262 265 268 265 259
260 259 258 258 259 259 259 259 258 259 261 262 265 265 262 258 254 251 250 248 248 248 249 251 253 251 252 253 250 245 242 245 252 256 259 262 264 265 265 265 263 264 265 265 265 267 267 267 269 271 269 268 267 261 256 254 254 256 258 259 260 261 259
261 260 259 259 260 260 260 259 258 258 259 260 260 260 260 259 255 249 245 245 246 246 246 248 248 246 246 247 248 252 255 256 256 256 257 260 264 267 268 266 263 259 257 258 263 269 269 267 271 276 273 269 271 270 265 261 256 254 254 254 254 257 260
262 261 261 261 262 262 261 259 257 256 257 257 255 252 249 251 253 252 249 245 244 242 242 244 243 242 244 249 254 259 260 260 257 253 251 252 254 257 260 263 266 265 263 261 262 266 267 267 271 277 279 278 280 278 278 275 261 251 252 255 254 257 261
263 263 263 263 263 263 262 259 256 256 255 253 251 247 240 239 244 249 251 251 245 239 239 241 237 236 241 249 257 263 264 264 264 260 255 250 246 247 249 251 253 257 261 267 269 266 267 271 274 276 283 287 284 278 279 283 276 261 259 266 266 268 267
264 264 264 264 263 262 261 259 257 255 253 250 247 241 235 234 236 240 245 248 246 241 239 235 231 233 244 255 263 268 270 269 267 263 257 249 243 246 253 255 254 250 247 253 263 269 274 278 277 279 284 283 281 280 280 284 283 273 269 275 276 271 259
264 265 265 265 264 262 260 259 256 253 249 246 242 235 230 230 232 235 240 243 243 241 235 229 231 241 255 266 268 268 271 271 267 259 252 247 244 245 250 258 266 264 251 245 251 263 274 280 280 279 279 278 277 279 279 280 278 272 267 268 266 258 248
265 266 267 266 264 262 261 258 254 250 247 242 237 229 223 225 228 233 239 241 239 237 231 226 231 245 261 265 260 258 259 257 258 260 256 251 249 247 248 254 259 261 259 253 250 255 265 273 276 276 276 277 275 274 274 270 266 263 259 255 254 253 248
266 267 268 267 265 263 262 258 251 244 241 237 230 223 220 222 225 229 234 236 234 233 232 230 232 241 250 247 244 255 261 249 241 253 260 258 255 253 253 261 263 256 253 252 250 250 254 259 263 267 269 274 276 275 271 266 264 265 261 252 248 247 248
265 268 270 269 267 264 260 257 248 237 235 233 225 219 219 222 225 229 233 234 233 232 234 236 235 235 238 240 242 253 260 253 241 248 259 266 270 269 266 270 277 274 266 259 253 251 252 253 254 254 254 258 264 266 265 265 269 271 265 257 253 247 245
265 269 271 271 268 263 258 255 245 232 230 229 221 215 215 218 224 232 234 232 231 233 238 239 234 233 236 242 247 252 256 259 256 253 255 261 266 271 273 276 281 283 282 278 271 265 261 259 256 250 247 248 251 253 255 257 262 267 263 259 259 253 248
267 270 272 272 267 261 255 251 242 230 226 225 220 214 210 212 222 231 229 227 231 238 243 240 234 234 238 243 248 251 252 258 264 261 257 257 259 263 268 273 278 281 281 281 279 273 265 258 252 248 246 246 246 247 249 249 253 260 262 259 258 255 254
268 270 272 270 265 258 252 246 238 228 221 221 219 214 210 211 217 222 225 233 243 244 244 242 237 237 241 244 248 250 249 257 269 269 262 259 258 259 263 266 269 273 275 274 273 271 267 258 248 245 248 251 252 250 249 248 249 252 256 257 257 255 255
268 270 271 269 262 254 247 240 232 225 220 218 216 213 211 210 211 216 227 241 246 244 245 245 241 239 242 246 251 256 259 266 272 268 263 264 261 256 257 258 255 256 265 271 271 270 267 262 255 252 251 255 259 259 256 252 249 249 251 253 255 254 253
267 270 271 267 258 248 239 231 225 221 219 215 211 210 210 207 208 216 228 235 238 240 243 244 244 245 248 250 254 259 263 268 269 263 259 260 256 248 248 251 251 252 256 263 269 268 265 262 260 258 255 258 265 268 264 255 251 250 251 252 253 252 251
267 270 269 264 252 239 229 221 217 216 215 211 206 203 203 206 211 216 219 223 232 239 244 247 251 253 254 256 259 260 262 262 259 255 253 254 253 250 250 252 254 255 255 257 261 264 263 261 257 254 254 260 267 268 261 251 246 246 248 250 251 249 247
266 268 265 257 244 227 214 209 207 208 209 208 204 199 200 208 216 218 219 225 236 243 246 248 249 250 253 257 258 259 260 256 249 245 248 250 250 251 253 255 259 260 258 257 258 260 262 259 253 249 252 258 259 255 252 248 243 241 246 249 248 245 244
266 265 259 247 231 210 199 198 202 205 206 207 208 209 212 217 224 229 234 241 247 250 250 247 247 250 254 256 256 257 257 253 244 241 246 250 251 252 255 258 261 261 260 258 258 257 257 255 251 247 246 248 248 247 249 252 245 242 249 253 247 243 244
262 258 248 230 210 195 190 192 197 202 205 209 214 219 225 230 236 240 243 246 248 250 251 251 251 250 248 246 247 249 249 248 245 245 248 252 255 256 257 257 258 258 258 260 261 259 255 252 250 249 247 247 248 249 253 258 250 244 252 257 248 241 243
256 247 230 208 192 187 187 191 196 202 207 212 216 220 227 236 241 242 243 245 249 253 253 246 239 237 237 239 240 242 246 250 252 252 255 257 258 257 256 256 257 256 256 257 258 259 254 248 246 248 251 252 251 250 252 257 254 247 249 255 251 245 244
247 231 209 190 180 178 182 189 196 203 208 212 218 225 233 243 248 248 248 248 251 253 246 235 229 232 238 239 236 238 243 248 251 255 261 264 261 258 257 257 257 256 254 253 254 256 255 247 240 241 246 250 251 250 251 256 257 248 241 242 245 244 242
230 211 194 179 171 172 186 192 196 204 209 215 224 234 238 241 241 238 233 230 237 242 239 234 233 236 237 237 236 238 241 244 248 256 261 263 260 257 256 256 255 254 253 252 252 254 255 251 241 237 237 241 244 246 248 251 254 247 239 237 238 235 233
200 186 180 178 183 200 213 200 198 205 214 221 228 235 235 231 230 230 228 230 238 241 235 232 234 236 237 240 241 241 243 247 252 257 257 253 251 252 253 252 252 252 252 252 253 254 255 252 246 240 236 233 233 236 239 243 245 241 236 236 238 235 232
177 182 194 216 231 236 231 214 206 210 220 226 223 223 225 225 230 235 232 227 228 229 227 228 231 234 239 243 245 246 248 251 252 252 250 246 244 245 246 247 248 249 251 250 249 249 250 250 249 244 238 230 226 226 227 230 234 234 232 235 239 240 240
200 215 213 218 219 208 197 196 198 202 212 216 215 224 230 232 241 250 244 230 225 229 232 233 236 239 244 247 249 249 249 246 244 244 245 245 243 240 239 241 244 247 250 251 249 247 246 246 246 245 240 233 227 224 223 222 223 223 224 226 228 229 233
203 210 206 204 201 192 190 199 209 218 231 237 240 247 251 251 252 255 254 246 236 235 236 236 238 242 244 246 249 249 244 238 238 241 243 241 237 233 232 234 237 242 246 249 249 248 246 244 243 243 242 238 233 228 227 225 223 222 221 222 225 229 232
202 207 207 208 207 205 209 220 229 236 244 249 255 261 265 260 252 247 249 250 247 243 240 237 237 239 241 246 249 249 243 238 238 241 240 234 231 229 228 228 231 237 243 247 250 252 250 247 245 244 243 242 240 237 234 232 231 230 230 230 233 238 240